Regional Weather Roundup
Issued by NWS Glasgow, MT

Home | Current Version | Previous Version | Text Only | Print | Product List | Glossary On
Versions: 1 2 3 4 5 6 7 8 9 10 11 12 13 14 15 16 17 18 19 20 21 22 23 24 25 26 27
000
ASUS45 KGGW 231515
RWRGGW
HOURLY REGIONAL WEATHER ROUNDUP FOR NORTHEAST MONTANA
NATIONAL WEATHER SERVICE GLASGOW MONTANA
900 AM MDT WED MAY 23 2018

NOTE: "FAIR" INDICATES FEW OR NO CLOUDS BELOW 12,000 FEET WITH NO
SIGNIFICANT WEATHER AND/OR OBSTRUCTIONS TO VISISBILITY.

NORTHEAST MONTANA


CITY           SKY/WX    TMP DP  RH WIND       PRES   REMARKS
GLASGOW        CLOUDY    67  54  63 SE9       29.88F
WOLF POINT     PTSUNNY   65  55  70 E9        29.90F
JORDAN           N/A     59  53  80 S3        29.89S
SIDNEY         CLOUDY    64  56  75 CALM      29.90F
GLENDIVE       CLOUDY    62  58  86 NE7       29.89F

FORT PECK REPORTS


CITY           SKY/WX    TMP DP  RH WIND       PRES   REMARKS

SOUTHEAST MONTANA


CITY           SKY/WX    TMP DP  RH WIND       PRES   REMARKS
BILLINGS       LGT RAIN  56  55  97 NE6       29.91R FOG
MILES CITY     CLOUDY    61  57  87 S6        29.85F
BAKER          CLOUDY    65  59  81 SE5       29.90S
LIVINGSTON     HVY RAIN  51  50  96 NW7       29.92F FOG

CENTRAL MONTANA


CITY           SKY/WX    TMP DP  RH WIND       PRES   REMARKS
HAVRE          MOSUNNY   64  51  62 NW5       29.89F
LEWISTOWN      LGT RAIN  55  52  89 W5        29.94S
GREAT FALLS    CLOUDY    60  49  66 SW5       29.93F
CUT BANK       SUNNY     60  46  59 CALM      29.94S
HELENA         PTSUNNY   54  49  83 CALM      29.94R
BUTTE          PTSUNNY   51  46  83 CALM      29.97F
BOZEMAN        LGT RAIN  53  50  89 CALM      29.93F FOG

WESTERN MONTANA


CITY           SKY/WX    TMP DP  RH WIND       PRES   REMARKS
MISSOULA       MOSUNNY   57  50  77 S3        29.89F
KALISPELL      NOT AVBL

NORTH DAKOTA


CITY           SKY/WX    TMP DP  RH WIND       PRES   REMARKS
WILLISTON      PTSUNNY   69  58  67 NE5       29.92R
DICKINSON      CLOUDY    64  59  83 SE14      29.92R
MINOT          CLOUDY    70  58  65 E10       29.94S
BISMARCK       PTSUNNY   69  64  84 SE10      29.93R

SOUTHERN SASKATCHEWAN


CITY           SKY/WX    TMP DP  RH WIND       PRES   REMARKS
REGINA         MOSUNNY   70  50  49 SE7       29.94F
MOOSE JAW      MOSUNNY   68  52  56 SE8       29.94F
ESTEVAN        MOSUNNY   72  54  53 E10       29.94S
SWIFT CURRENT  SUNNY     66  50  55 E8        29.92F





USA.gov is the U.S. government's official web portal to all federal, state and local government web resources and services.